Location: *
(35.2348°S, 91.3916°E)
Time: 10:46:29
(UTC+00:00)

Cosmos 371 Rocket - Pass Details

Date: 23 October 2019
Orbit: 684 x 699 km, 74.0° (Epoch: 13 November)

Event Time Altitude Azimuth Distance (km) Brightness Sun altitude
Exits shadow 21:20:05 42° 317° (NW) 1,004 3.6 -19.9°
Maximum altitude 21:21:37 66° 252° (WSW) 773 3.3 -19.6°
Drops below altitude 10° 21:26:33 10° 169° (SSE) 2,191 6.4 -18.7°
Sets 21:28:55 0° 165° (SSE) 3,116 7.3 -18.3°
